Time,TemperatureF,DewpointF,PressureIn,WindDirection,WindDirectionDegrees,WindSpeedMPH,WindSpeedGustMPH,Humidity,HourlyPrecipIn,Conditions,Clouds,dailyrainin,SolarRadiationWatts/m^2,SoftwareType,DateUTC
2013-07-20 00:00:00,77.6,65.3,29.67,SSE,148,4.0,10.0,66,0.00,,SKC,0.00,0.00,VWS V14.01,2013-07-20 05:00:00,
2013-07-20 00:01:00,77.6,65.3,29.67,SSE,148,4.0,10.0,66,0.00,,---,0.00,0.00,VWS V14.00,2013-07-20 05:01:00,
2013-07-20 00:06:00,77.4,65.6,29.67,SSE,148,5.0,11.0,67,0.00,,---,0.00,0.00,VWS V14.00,2013-07-20 05:06:00,
2013-07-20 00:10:00,77.3,65.9,29.67,SSE,148,5.0,11.0,68,0.00,,SKC,0.00,0.00,VWS V14.01,2013-07-20 05:10:00,
2013-07-20 00:11:00,77.3,65.9,29.67,SSE,148,8.0,11.0,68,0.00,,---,0.00,0.00,VWS V14.00,2013-07-20 05:11:00,
2013-07-20 00:16:00,77.3,66.3,29.67,SSE,148,8.0,9.0,69,0.00,,---,0.00,0.00,VWS V14.00,2013-07-20 05:16:00,
2013-07-20 00:20:00,77.2,66.7,29.67,SSE,148,5.0,9.0,70,0.00,,SKC,0.00,0.00,VWS V14.01,2013-07-20 05:20:00,
2013-07-20 00:21:00,77.2,66.7,29.67,SSE,148,7.0,9.0,70,0.00,,---,0.00,0.00,VWS V14.00,2013-07-20 05:21:00,
2013-07-20 00:26:00,77.1,67.0,29.67,SSE,148,7.0,9.0,71,0.00,,---,0.00,0.00,VWS V14.00,2013-07-20 05:26:00,
2013-07-20 00:30:00,77.1,67.4,29.67,SSE,148,5.0,9.0,72,0.00,,SKC,0.00,0.00,VWS V14.01,2013-07-20 05:30:00,
2013-07-20 00:31:00,77.1,67.4,29.67,SSE,148,7.0,9.0,72,0.00,,---,0.00,0.00,VWS V14.00,2013-07-20 05:31:00,
2013-07-20 00:36:00,77.1,67.8,29.67,SSE,148,7.0,13.0,73,0.00,,---,0.00,0.00,VWS V14.00,2013-07-20 05:36:00,
2013-07-20 00:40:00,77.1,67.8,29.67,SSE,148,8.0,13.0,73,0.00,,SKC,0.00,0.00,VWS V14.01,2013-07-20 05:40:00,
2013-07-20 00:41:00,77.1,67.8,29.67,SSE,148,5.0,13.0,73,0.00,,---,0.00,0.00,VWS V14.00,2013-07-20 05:41:00,
2013-07-20 00:46:00,77.0,68.1,29.67,SSE,148,4.0,9.0,74,0.00,,---,0.00,0.00,VWS V14.00,2013-07-20 05:46:00,
2013-07-20 00:50:00,77.0,68.1,29.67,SSE,148,4.0,11.0,74,0.00,,SKC,0.00,0.00,VWS V14.01,2013-07-20 05:50:00,
2013-07-20 00:51:00,77.0,68.1,29.67,SSE,148,5.0,11.0,74,0.00,,---,0.00,0.00,VWS V14.00,2013-07-20 05:51:00,
2013-07-20 00:56:00,77.0,68.1,29.67,SSE,148,6.0,10.0,74,0.00,,---,0.00,0.00,VWS V14.00,2013-07-20 05:56:00,
2013-07-20 01:00:00,76.9,68.4,29.67,SSE,148,6.0,11.0,75,0.00,,SKC,0.00,0.00,VWS V14.01,2013-07-20 06:00:00,
2013-07-20 01:01:00,77.0,68.5,29.67,SSE,148,2.0,11.0,75,0.00,,---,0.00,0.00,VWS V14.00,2013-07-20 06:01:00,
2013-07-20 01:06:00,76.9,68.4,29.67,SSE,148,2.0,8.0,75,0.00,,---,0.00,0.00,VWS V14.00,2013-07-20 06:06:00,
2013-07-20 01:10:00,76.8,68.3,29.67,SSE,148,0.0,8.0,75,0.00,,SKC,0.00,0.00,VWS V14.01,2013-07-20 06:10:00,
2013-07-20 01:11:00,76.8,68.3,29.67,SSE,148,0.0,8.0,75,0.00,,---,0.00,0.00,VWS V14.00,2013-07-20 06:11:00,
2013-07-20 01:16:00,76.7,68.6,29.67,SSE,148,1.0,6.0,76,0.00,,---,0.00,0.00,VWS V14.00,2013-07-20 06:16:00,
2013-07-20 01:20:00,76.6,68.5,29.67,SSE,148,4.0,6.0,76,0.00,,SKC,0.00,0.00,VWS V14.01,2013-07-20 06:20:00,
2013-07-20 01:21:00,76.6,68.5,29.67,SSE,148,6.0,6.0,76,0.00,,---,0.00,0.00,VWS V14.00,2013-07-20 06:21:00,
2013-07-20 01:26:00,76.6,68.5,29.66,SSE,148,1.0,8.0,76,0.00,,---,0.00,0.00,VWS V14.00,2013-07-20 06:26:00,
2013-07-20 01:30:00,76.5,68.8,29.66,SSE,148,0.0,8.0,77,0.00,,SKC,0.00,0.00,VWS V14.01,2013-07-20 06:30:00,
2013-07-20 01:31:00,76.5,68.8,29.66,SSE,148,4.0,8.0,77,0.00,,---,0.00,0.00,VWS V14.00,2013-07-20 06:31:00,
2013-07-20 01:36:00,76.4,68.7,29.66,SSE,148,2.0,9.0,77,0.00,,---,0.00,0.00,VWS V14.00,2013-07-20 06:36:00,
2013-07-20 01:40:00,76.3,68.6,29.66,SSE,148,0.0,9.0,77,0.00,,SKC,0.00,0.00,VWS V14.01,2013-07-20 06:40:00,
2013-07-20 01:41:00,76.3,68.6,29.66,SSE,148,0.0,9.0,77,0.00,,---,0.00,0.00,VWS V14.00,2013-07-20 06:41:00,
2013-07-20 01:46:00,76.2,68.8,29.66,SSE,148,7.0,7.0,78,0.00,,---,0.00,0.00,VWS V14.00,2013-07-20 06:46:00,
2013-07-20 01:50:00,76.2,68.8,29.66,SSE,148,0.0,7.0,78,0.00,,SKC,0.00,0.00,VWS V14.01,2013-07-20 06:50:00,
2013-07-20 01:51:00,76.2,68.8,29.66,SSE,148,0.0,7.0,78,0.00,,---,0.00,0.00,VWS V14.00,2013-07-20 06:51:00,
2013-07-20 01:56:00,76.1,68.8,29.66,SSE,148,6.0,7.0,78,0.00,,---,0.00,0.00,VWS V14.00,2013-07-20 06:56:00,
2013-07-20 02:00:00,76.1,68.8,29.66,SSE,148,1.0,7.0,78,0.00,,SKC,0.00,0.00,VWS V14.01,2013-07-20 07:00:00,
2013-07-20 02:01:00,76.1,68.8,29.66,SSE,148,4.0,7.0,78,0.00,,---,0.00,0.00,VWS V14.00,2013-07-20 07:01:00,
2013-07-20 02:06:00,76.0,68.7,29.66,SSE,148,0.0,8.0,78,0.00,,---,0.00,0.00,VWS V14.00,2013-07-20 07:06:00,
2013-07-20 02:10:00,75.9,68.6,29.65,SSE,148,5.0,8.0,78,0.00,,SKC,0.00,0.00,VWS V14.01,2013-07-20 07:10:00,
2013-07-20 02:11:00,76.0,68.7,29.65,SSE,148,1.0,8.0,78,0.00,,---,0.00,0.00,VWS V14.00,2013-07-20 07:11:00,
2013-07-20 02:16:00,75.9,68.6,29.65,SSE,148,0.0,8.0,78,0.00,,---,0.00,0.00,VWS V14.00,2013-07-20 07:16:00,
2013-07-20 02:20:00,75.8,68.8,29.65,SSE,148,4.0,8.0,79,0.00,,SKC,0.00,0.00,VWS V14.01,2013-07-20 07:20:00,
2013-07-20 02:21:00,75.8,68.8,29.65,SSE,148,6.0,8.0,79,0.00,,---,0.00,0.00,VWS V14.00,2013-07-20 07:21:00,
2013-07-20 02:26:00,75.7,68.7,29.65,SSE,148,2.0,7.0,79,0.00,,---,0.00,0.00,VWS V14.00,2013-07-20 07:26:00,
2013-07-20 02:30:00,75.7,68.7,29.65,SSE,148,5.0,10.0,79,0.00,,SKC,0.00,0.00,VWS V14.01,2013-07-20 07:30:00,
2013-07-20 02:31:00,75.7,68.7,29.65,SSE,148,4.0,10.0,79,0.00,,---,0.00,0.00,VWS V14.00,2013-07-20 07:31:00,
2013-07-20 02:36:00,75.6,68.6,29.65,SSE,148,0.0,7.0,79,0.00,,---,0.00,0.00,VWS V14.00,2013-07-20 07:36:00,
2013-07-20 02:40:00,75.5,68.9,29.64,SSE,148,0.0,7.0,80,0.00,,SKC,0.00,0.00,VWS V14.01,2013-07-20 07:40:00,
2013-07-20 02:41:00,75.5,68.9,29.64,SSE,148,0.0,7.0,80,0.00,,---,0.00,0.00,VWS V14.00,2013-07-20 07:41:00,
2013-07-20 02:46:00,75.5,68.9,29.64,SSE,148,1.0,10.0,80,0.00,,---,0.00,0.00,VWS V14.00,2013-07-20 07:46:00,
2013-07-20 02:50:00,75.4,68.8,29.64,SSE,148,1.0,10.0,80,0.00,,SKC,0.00,0.00,VWS V14.01,2013-07-20 07:50:00,
2013-07-20 02:51:00,75.4,68.8,29.64,SSE,148,0.0,10.0,80,0.00,,---,0.00,0.00,VWS V14.00,2013-07-20 07:51:00,
2013-07-20 02:56:00,75.3,68.7,29.64,SSE,148,4.0,6.0,80,0.00,,---,0.00,0.00,VWS V14.00,2013-07-20 07:56:00,
2013-07-20 03:00:00,75.2,68.6,29.64,SSE,148,0.0,7.0,80,0.00,,SKC,0.00,0.00,VWS V14.01,2013-07-20 08:00:00,
2013-07-20 03:01:00,75.2,68.6,29.64,SSE,148,2.0,7.0,80,0.00,,---,0.00,0.00,VWS V14.00,2013-07-20 08:01:00,
2013-07-20 03:06:00,75.1,68.9,29.64,SSE,148,8.0,10.0,81,0.00,,---,0.00,0.00,VWS V14.00,2013-07-20 08:06:00,
2013-07-20 03:10:00,75.0,68.8,29.64,SSE,148,2.0,10.0,81,0.00,,SKC,0.00,0.00,VWS V14.01,2013-07-20 08:10:00,
2013-07-20 03:11:00,75.0,68.8,29.64,SSE,148,6.0,10.0,81,0.00,,---,0.00,0.00,VWS V14.00,2013-07-20 08:11:00,
2013-07-20 03:16:00,75.0,68.8,29.64,SSE,148,2.0,9.0,81,0.00,,---,0.00,0.00,VWS V14.00,2013-07-20 08:16:00,
2013-07-20 03:20:00,74.9,68.7,29.64,SSE,148,5.0,9.0,81,0.00,,SKC,0.00,0.00,VWS V14.01,2013-07-20 08:20:00,
2013-07-20 03:21:00,74.9,68.7,29.64,SSE,148,2.0,9.0,81,0.00,,---,0.00,0.00,VWS V14.00,2013-07-20 08:21:00,
2013-07-20 03:26:00,74.8,68.6,29.64,SSE,148,5.0,7.0,81,0.00,,---,0.00,0.00,VWS V14.00,2013-07-20 08:26:00,
2013-07-20 03:30:00,74.8,68.6,29.64,SSE,148,1.0,10.0,81,0.00,,SKC,0.00,0.00,VWS V14.01,2013-07-20 08:30:00,
2013-07-20 03:31:00,74.8,68.6,29.64,SSE,148,0.0,10.0,81,0.00,,---,0.00,0.00,VWS V14.00,2013-07-20 08:31:00,
2013-07-20 03:36:00,74.7,68.5,29.64,SSE,148,2.0,7.0,81,0.00,,---,0.00,0.00,VWS V14.00,2013-07-20 08:36:00,
2013-07-20 03:40:00,74.6,68.4,29.64,SSE,148,0.0,8.0,81,0.00,,SKC,0.00,0.00,VWS V14.01,2013-07-20 08:40:00,
2013-07-20 03:41:00,74.6,68.4,29.64,SSE,148,4.0,8.0,81,0.00,,---,0.00,0.00,VWS V14.00,2013-07-20 08:41:00,
2013-07-20 03:46:00,74.5,68.7,29.64,SSE,148,0.0,2.0,82,0.00,,---,0.00,0.00,VWS V14.00,2013-07-20 08:46:00,
2013-07-20 03:50:00,74.4,68.2,29.64,SSE,148,1.0,6.0,81,0.00,,SKC,0.00,0.00,VWS V14.01,2013-07-20 08:50:00,
2013-07-20 03:51:00,74.4,68.2,29.64,SSE,148,5.0,6.0,81,0.00,,---,0.00,0.00,VWS V14.00,2013-07-20 08:51:00,
2013-07-20 03:56:00,74.3,68.1,29.64,SSE,148,0.0,4.0,81,0.00,,---,0.00,0.00,VWS V14.00,2013-07-20 08:56:00,
2013-07-20 04:00:00,74.2,68.0,29.64,SSE,148,0.0,7.0,81,0.00,,SKC,0.00,0.00,VWS V14.01,2013-07-20 09:00:00,
2013-07-20 04:01:00,74.2,68.0,29.64,SSE,148,0.0,7.0,81,0.00,,---,0.00,0.00,VWS V14.00,2013-07-20 09:01:00,
2013-07-20 04:06:00,74.2,68.0,29.63,SSE,148,0.0,4.0,81,0.00,,---,0.00,0.00,VWS V14.00,2013-07-20 09:06:00,
2013-07-20 04:10:00,74.1,68.3,29.63,SSE,148,0.0,5.0,82,0.00,,SKC,0.00,0.00,VWS V14.01,2013-07-20 09:10:00,
2013-07-20 04:11:00,74.1,68.3,29.63,SSE,148,0.0,5.0,82,0.00,,---,0.00,0.00,VWS V14.00,2013-07-20 09:11:00,
2013-07-20 04:16:00,74.0,68.2,29.63,SSE,148,0.0,0.0,82,0.00,,---,0.00,0.00,VWS V14.00,2013-07-20 09:16:00,
2013-07-20 04:20:00,73.9,68.1,29.63,SSE,148,0.0,6.0,82,0.00,,SKC,0.00,0.00,VWS V14.01,2013-07-20 09:20:00,
2013-07-20 04:21:00,73.9,68.1,29.63,SSE,148,0.0,6.0,82,0.00,,---,0.00,0.00,VWS V14.00,2013-07-20 09:21:00,
2013-07-20 04:26:00,73.9,68.1,29.63,SSE,148,0.0,1.0,82,0.00,,---,0.00,0.00,VWS V14.00,2013-07-20 09:26:00,
2013-07-20 04:30:00,73.7,67.9,29.63,SSE,148,0.0,4.0,82,0.00,,SKC,0.00,0.00,VWS V14.01,2013-07-20 09:30:00,
2013-07-20 04:31:00,73.7,67.9,29.63,SSE,148,0.0,4.0,82,0.00,,---,0.00,0.00,VWS V14.00,2013-07-20 09:31:00,
2013-07-20 04:36:00,73.7,67.9,29.63,SSE,148,0.0,0.0,82,0.00,,---,0.00,0.00,VWS V14.00,2013-07-20 09:36:00,
2013-07-20 04:40:00,73.5,67.7,29.62,SSE,148,2.0,2.0,82,0.00,,SKC,0.00,0.00,VWS V14.01,2013-07-20 09:40:00,
2013-07-20 04:41:00,73.6,67.8,29.62,SSE,148,0.0,1.0,82,0.00,,---,0.00,0.00,VWS V14.00,2013-07-20 09:41:00,
2013-07-20 04:46:00,73.4,67.6,29.62,SSE,148,2.0,5.0,82,0.00,,---,0.00,0.00,VWS V14.00,2013-07-20 09:46:00,
2013-07-20 04:50:00,73.3,67.8,29.62,SSE,148,0.0,5.0,83,0.00,,SKC,0.00,0.00,VWS V14.01,2013-07-20 09:50:00,
2013-07-20 04:51:00,73.3,67.8,29.62,SSE,148,1.0,5.0,83,0.00,,---,0.00,0.00,VWS V14.00,2013-07-20 09:51:00,
2013-07-20 04:56:00,73.3,67.8,29.62,SSE,148,0.0,4.0,83,0.00,,---,0.00,0.00,VWS V14.00,2013-07-20 09:56:00,
2013-07-20 05:00:00,73.2,67.7,29.62,SSE,148,1.0,4.0,83,0.00,,SKC,0.00,0.00,VWS V14.01,2013-07-20 10:00:00,
2013-07-20 05:01:00,73.2,67.7,29.62,SSE,148,0.0,4.0,83,0.00,,---,0.00,0.00,VWS V14.00,2013-07-20 10:01:00,
2013-07-20 05:06:00,73.2,67.7,29.62,SSE,148,4.0,5.0,83,0.00,,---,0.00,0.00,VWS V14.00,2013-07-20 10:06:00,
2013-07-20 05:10:00,73.2,67.7,29.63,SSE,148,0.0,5.0,83,0.00,,SKC,0.00,0.00,VWS V14.01,2013-07-20 10:10:00,
2013-07-20 05:11:00,73.2,67.7,29.63,SSE,148,0.0,5.0,83,0.00,,---,0.00,0.00,VWS V14.00,2013-07-20 10:11:00,
2013-07-20 05:16:00,73.2,67.7,29.63,SSE,148,0.0,1.0,83,0.00,,---,0.00,0.00,VWS V14.00,2013-07-20 10:16:00,
2013-07-20 05:20:00,73.1,67.6,29.63,SSE,148,0.0,4.0,83,0.00,,SKC,0.00,0.00,VWS V14.01,2013-07-20 10:20:00,
2013-07-20 05:21:00,73.1,67.6,29.63,SSE,148,0.0,4.0,83,0.00,,---,0.00,0.00,VWS V14.00,2013-07-20 10:21:00,
2013-07-20 05:26:00,73.1,67.6,29.64,SSE,148,0.0,4.0,83,0.00,,---,0.00,0.00,VWS V14.00,2013-07-20 10:26:00,
2013-07-20 05:30:00,73.1,67.6,29.63,SSE,148,2.0,5.0,83,0.00,,SKC,0.00,0.00,VWS V14.01,2013-07-20 10:30:00,
2013-07-20 05:31:00,73.1,67.6,29.63,SSE,148,0.0,5.0,83,0.00,,---,0.00,0.00,VWS V14.00,2013-07-20 10:31:00,
2013-07-20 05:36:00,73.0,67.9,29.63,SSE,148,1.0,7.0,84,0.00,,---,0.00,0.00,VWS V14.00,2013-07-20 10:36:00,
2013-07-20 05:40:00,73.0,67.9,29.63,SSE,148,2.0,7.0,84,0.00,,SKC,0.00,0.00,VWS V14.01,2013-07-20 10:40:00,
2013-07-20 05:41:00,73.0,67.9,29.63,SSE,148,4.0,7.0,84,0.00,,---,0.00,0.00,VWS V14.00,2013-07-20 10:41:00,
2013-07-20 05:46:00,72.9,67.8,29.63,SSE,148,1.0,5.0,84,0.00,,---,0.00,0.00,VWS V14.00,2013-07-20 10:46:00,
2013-07-20 05:50:00,72.9,67.8,29.64,SSE,148,1.0,5.0,84,0.00,,SKC,0.00,0.00,VWS V14.01,2013-07-20 10:50:00,
2013-07-20 05:51:00,72.9,67.8,29.64,SSE,148,2.0,5.0,84,0.00,,---,0.00,0.00,VWS V14.00,2013-07-20 10:51:00,
2013-07-20 05:56:00,72.9,68.1,29.63,SSE,148,2.0,4.0,85,0.00,,---,0.00,0.00,VWS V14.00,2013-07-20 10:56:00,
2013-07-20 06:00:00,72.8,68.0,29.64,SSE,148,2.0,4.0,85,0.00,,SKC,0.00,0.00,VWS V14.01,2013-07-20 11:00:00,
2013-07-20 06:01:00,72.8,68.0,29.64,SSE,148,1.0,4.0,85,0.00,,---,0.00,0.00,VWS V14.00,2013-07-20 11:01:00,
2013-07-20 06:06:00,72.7,67.9,29.64,SSE,148,0.0,4.0,85,0.00,,---,0.00,0.00,VWS V14.00,2013-07-20 11:06:00,
2013-07-20 06:10:00,72.6,68.2,29.64,SSE,148,1.0,4.0,86,0.00,,SKC,0.00,0.00,VWS V14.01,2013-07-20 11:10:00,
2013-07-20 06:11:00,72.6,68.2,29.64,SSE,148,2.0,4.0,86,0.00,,---,0.00,0.00,VWS V14.00,2013-07-20 11:11:00,
2013-07-20 06:16:00,72.6,68.2,29.64,SSE,148,0.0,5.0,86,0.00,,---,0.00,0.00,VWS V14.00,2013-07-20 11:16:00,
2013-07-20 06:20:00,72.6,68.2,29.64,SSE,148,0.0,5.0,86,0.00,,SKC,0.00,0.00,VWS V14.01,2013-07-20 11:20:00,
2013-07-20 06:21:00,72.5,68.1,29.64,SSE,148,0.0,5.0,86,0.00,,---,0.00,0.00,VWS V14.00,2013-07-20 11:21:00,
2013-07-20 06:26:00,72.5,68.1,29.64,SSE,148,0.0,0.0,86,0.00,,---,0.00,0.00,VWS V14.00,2013-07-20 11:26:00,
2013-07-20 06:30:00,72.4,68.0,29.64,SSE,148,2.0,4.0,86,0.00,,SKC,0.00,0.00,VWS V14.01,2013-07-20 11:30:00,
2013-07-20 06:31:00,72.4,68.0,29.64,SSE,148,1.0,2.0,86,0.00,,---,0.00,0.00,VWS V14.00,2013-07-20 11:31:00,
2013-07-20 06:36:00,72.3,67.9,29.64,SSE,148,1.0,2.0,86,0.00,,---,0.00,0.00,VWS V14.00,2013-07-20 11:36:00,
2013-07-20 06:40:00,72.1,68.0,29.64,SSE,148,1.0,4.0,87,0.00,,SKC,0.00,0.00,VWS V14.01,2013-07-20 11:40:00,
2013-07-20 06:41:00,72.1,68.0,29.64,SSE,148,0.0,4.0,87,0.00,,---,0.00,0.00,VWS V14.00,2013-07-20 11:41:00,
2013-07-20 06:46:00,71.9,67.8,29.64,SSE,148,1.0,1.0,87,0.00,,---,0.00,0.00,VWS V14.00,2013-07-20 11:46:00,
2013-07-20 06:50:00,71.7,68.0,29.64,SSE,148,2.0,2.0,88,0.00,,SKC,0.00,5.00,VWS V14.01,2013-07-20 11:50:00,
2013-07-20 06:51:00,71.7,67.6,29.64,SSE,148,1.0,2.0,87,0.00,,---,0.00,5.00,VWS V14.00,2013-07-20 11:51:00,
2013-07-20 06:56:00,71.6,67.9,29.65,SSE,148,0.0,4.0,88,0.00,,---,0.00,7.00,VWS V14.00,2013-07-20 11:56:00,
2013-07-20 07:00:00,71.5,67.8,29.65,SSE,148,0.0,4.0,88,0.00,,SKC,0.00,11.00,VWS V14.01,2013-07-20 12:00:00,
2013-07-20 07:01:00,71.5,67.8,29.65,SSE,148,0.0,4.0,88,0.00,,---,0.00,11.00,VWS V14.00,2013-07-20 12:01:00,
2013-07-20 07:06:00,71.4,68.0,29.65,SSE,148,0.0,0.0,89,0.00,,---,0.00,14.00,VWS V14.00,2013-07-20 12:06:00,
2013-07-20 07:10:00,71.3,67.9,29.64,SSE,148,0.0,0.0,89,0.00,,SKC,0.00,18.00,VWS V14.01,2013-07-20 12:10:00,
2013-07-20 07:11:00,71.3,67.9,29.64,SSE,148,0.0,0.0,89,0.00,,---,0.00,18.00,VWS V14.00,2013-07-20 12:11:00,
2013-07-20 07:16:00,71.2,67.8,29.64,SSE,148,0.0,0.0,89,0.00,,---,0.00,19.00,VWS V14.00,2013-07-20 12:16:00,
2013-07-20 07:20:00,71.2,67.8,29.64,SSE,148,0.0,0.0,89,0.00,,SKC,0.00,23.00,VWS V14.01,2013-07-20 12:20:00,
2013-07-20 07:21:00,71.2,67.8,29.64,SSE,148,0.0,0.0,89,0.00,,---,0.00,23.00,VWS V14.00,2013-07-20 12:21:00,
2013-07-20 07:26:00,71.1,67.7,29.64,SSE,148,0.0,0.0,89,0.00,,---,0.00,25.00,VWS V14.00,2013-07-20 12:26:00,
2013-07-20 07:30:00,71.1,68.0,29.64,SSE,148,0.0,0.0,90,0.00,,SKC,0.00,30.00,VWS V14.01,2013-07-20 12:30:00,
2013-07-20 07:31:00,71.1,68.0,29.64,SSE,148,0.0,0.0,90,0.00,,---,0.00,28.00,VWS V14.00,2013-07-20 12:31:00,
2013-07-20 07:36:00,71.1,68.0,29.64,SSE,148,0.0,0.0,90,0.00,,---,0.00,32.00,VWS V14.00,2013-07-20 12:36:00,
2013-07-20 07:40:00,71.1,68.0,29.64,SSE,148,0.0,0.0,90,0.00,,SKC,0.00,33.00,VWS V14.01,2013-07-20 12:40:00,
2013-07-20 07:41:00,71.1,68.0,29.64,SSE,148,0.0,0.0,90,0.00,,---,0.00,33.00,VWS V14.00,2013-07-20 12:41:00,
2013-07-20 07:46:00,71.1,68.0,29.65,SSE,148,0.0,0.0,90,0.00,,---,0.00,37.00,VWS V14.00,2013-07-20 12:46:00,
2013-07-20 07:50:00,71.1,68.0,29.65,SSE,148,0.0,0.0,90,0.00,,SKC,0.00,40.00,VWS V14.01,2013-07-20 12:50:00,
2013-07-20 07:51:00,71.1,68.0,29.65,SSE,148,0.0,0.0,90,0.00,,---,0.00,40.00,VWS V14.00,2013-07-20 12:51:00,
2013-07-20 07:56:00,71.2,68.1,29.65,SSE,148,0.0,0.0,90,0.00,,---,0.00,44.00,VWS V14.00,2013-07-20 12:56:00,
2013-07-20 08:00:00,71.2,68.1,29.65,SSE,148,0.0,1.0,90,0.00,,SKC,0.00,47.00,VWS V14.01,2013-07-20 13:00:00,
2013-07-20 08:01:00,71.2,68.1,29.65,SSE,148,0.0,1.0,90,0.00,,---,0.00,46.00,VWS V14.00,2013-07-20 13:01:00,
2013-07-20 08:06:00,71.3,68.2,29.65,SSE,148,0.0,2.0,90,0.00,,---,0.00,47.00,VWS V14.00,2013-07-20 13:06:00,
2013-07-20 08:10:00,71.5,68.1,29.65,SSE,148,0.0,2.0,89,0.00,,SKC,0.00,167.00,VWS V14.01,2013-07-20 13:10:00,
2013-07-20 08:11:00,71.5,68.4,29.65,SSE,148,0.0,2.0,90,0.00,,---,0.00,109.00,VWS V14.00,2013-07-20 13:11:00,
2013-07-20 08:16:00,71.6,68.2,29.65,SSE,148,0.0,0.0,89,0.00,,---,0.00,230.00,VWS V14.00,2013-07-20 13:16:00,
2013-07-20 08:20:00,72.0,68.9,29.65,SSE,148,0.0,0.0,90,0.00,,SKC,0.00,255.00,VWS V14.01,2013-07-20 13:20:00,
2013-07-20 08:21:00,72.0,68.9,29.65,SSE,148,0.0,0.0,90,0.00,,---,0.00,251.00,VWS V14.00,2013-07-20 13:21:00,
2013-07-20 08:26:00,72.4,69.3,29.65,SSE,148,0.0,0.0,90,0.00,,---,0.00,271.00,VWS V14.00,2013-07-20 13:26:00,
2013-07-20 08:30:00,73.0,69.6,29.66,SSE,148,0.0,2.0,89,0.00,,SKC,0.00,294.00,VWS V14.01,2013-07-20 13:30:00,
2013-07-20 08:31:00,73.0,69.6,29.66,SSE,148,0.0,2.0,89,0.00,,---,0.00,288.00,VWS V14.00,2013-07-20 13:31:00,
2013-07-20 08:36:00,73.4,69.6,29.66,SSE,148,2.0,4.0,88,0.00,,---,0.00,311.00,VWS V14.00,2013-07-20 13:36:00,
2013-07-20 08:40:00,74.2,70.1,29.66,SSE,148,2.0,4.0,87,0.00,,SKC,0.00,336.00,VWS V14.01,2013-07-20 13:40:00,
2013-07-20 08:41:00,74.1,70.0,29.66,SSE,148,0.0,4.0,87,0.00,,---,0.00,332.00,VWS V14.00,2013-07-20 13:41:00,
2013-07-20 08:46:00,74.7,69.9,29.66,SSE,148,2.0,4.0,85,0.00,,---,0.00,355.00,VWS V14.00,2013-07-20 13:46:00,
2013-07-20 08:50:00,75.4,69.5,29.65,SSE,148,5.0,7.0,82,0.00,,SKC,0.00,376.00,VWS V14.01,2013-07-20 13:50:00,
2013-07-20 08:51:00,75.3,69.4,29.65,SSE,148,1.0,7.0,82,0.00,,---,0.00,373.00,VWS V14.00,2013-07-20 13:51:00,
2013-07-20 08:56:00,75.9,69.7,29.66,SSE,148,7.0,7.0,81,0.00,,---,0.00,390.00,VWS V14.00,2013-07-20 13:56:00,
2013-07-20 09:00:00,76.5,68.8,29.65,SSE,148,5.0,7.0,77,0.00,,SKC,0.00,406.00,VWS V14.01,2013-07-20 14:00:00,
2013-07-20 09:01:00,76.4,69.0,29.65,SSE,148,7.0,7.0,78,0.00,,---,0.00,406.00,VWS V14.00,2013-07-20 14:01:00,
2013-07-20 09:06:00,76.8,68.3,29.65,SSE,148,2.0,8.0,75,0.00,,---,0.00,420.00,VWS V14.00,2013-07-20 14:06:00,
2013-07-20 09:10:00,77.2,67.9,29.65,SSE,148,5.0,8.0,73,0.00,,SKC,0.00,438.00,VWS V14.01,2013-07-20 14:10:00,
2013-07-20 09:11:00,77.1,67.8,29.65,SSE,148,2.0,8.0,73,0.00,,---,0.00,436.00,VWS V14.00,2013-07-20 14:11:00,
2013-07-20 09:16:00,77.6,67.9,29.65,SSE,148,2.0,7.0,72,0.00,,---,0.00,446.00,VWS V14.00,2013-07-20 14:16:00,
2013-07-20 09:20:00,78.1,67.5,29.65,SSE,148,7.0,8.0,70,0.00,,SKC,0.00,468.00,VWS V14.01,2013-07-20 14:20:00,
2013-07-20 09:21:00,78.0,67.8,29.65,SSE,148,5.0,8.0,71,0.00,,---,0.00,464.00,VWS V14.00,2013-07-20 14:21:00,
2013-07-20 09:26:00,78.4,67.4,29.65,SSE,148,6.0,9.0,69,0.00,,---,0.00,480.00,VWS V14.00,2013-07-20 14:26:00,
2013-07-20 09:30:00,78.9,67.9,29.65,SSE,153,0.0,12.0,69,0.00,,SKC,0.00,499.00,VWS V14.01,2013-07-20 14:30:00,
2013-07-20 09:31:00,78.8,67.8,29.65,SSE,153,7.0,12.0,69,0.00,,---,0.00,499.00,VWS V14.00,2013-07-20 14:31:00,
2013-07-20 09:36:00,79.3,68.3,29.65,SSE,153,5.0,9.0,69,0.00,,---,0.00,387.00,VWS V14.00,2013-07-20 14:36:00,
2013-07-20 09:40:00,79.5,68.0,29.65,SSE,153,6.0,9.0,68,0.00,,SKC,0.00,517.00,VWS V14.01,2013-07-20 14:40:00,
2013-07-20 09:41:00,79.5,68.0,29.65,SSE,153,6.0,9.0,68,0.00,,---,0.00,519.00,VWS V14.00,2013-07-20 14:41:00,
2013-07-20 09:46:00,79.6,68.1,29.65,SSE,153,4.0,7.0,68,0.00,,---,0.00,550.00,VWS V14.00,2013-07-20 14:46:00,
2013-07-20 09:50:00,80.0,68.1,29.64,SSE,155,4.0,12.0,67,0.00,,SKC,0.00,554.00,VWS V14.01,2013-07-20 14:50:00,
2013-07-20 09:51:00,80.0,68.1,29.64,SSE,155,9.0,12.0,67,0.00,,---,0.00,564.00,VWS V14.00,2013-07-20 14:51:00,
2013-07-20 09:56:00,80.2,68.3,29.65,SSE,155,6.0,8.0,67,0.00,,---,0.00,582.00,VWS V14.00,2013-07-20 14:56:00,
2013-07-20 10:00:00,80.6,68.2,29.64,SSE,155,4.0,8.0,66,0.00,,SKC,0.00,517.00,VWS V14.01,2013-07-20 15:00:00,
2013-07-20 10:01:00,80.5,68.1,29.64,SSE,155,7.0,8.0,66,0.00,,---,0.00,522.00,VWS V14.00,2013-07-20 15:01:00,
2013-07-20 10:06:00,80.8,67.9,29.64,SSE,155,7.0,10.0,65,0.00,,---,0.00,536.00,VWS V14.00,2013-07-20 15:06:00,
2013-07-20 10:10:00,80.9,68.0,29.64,SSE,159,6.0,12.0,65,0.00,,SKC,0.00,601.00,VWS V14.01,2013-07-20 15:10:00,
2013-07-20 10:11:00,80.9,68.0,29.64,SSE,159,6.0,12.0,65,0.00,,---,0.00,603.00,VWS V14.00,2013-07-20 15:11:00,
2013-07-20 10:16:00,81.1,68.2,29.64,SSE,159,1.0,6.0,65,0.00,,---,0.00,624.00,VWS V14.00,2013-07-20 15:16:00,
2013-07-20 10:20:00,81.7,68.8,29.64,SSE,159,5.0,9.0,65,0.00,,SKC,0.00,636.00,VWS V14.01,2013-07-20 15:20:00,
2013-07-20 10:21:00,81.6,68.7,29.64,SSE,159,4.0,9.0,65,0.00,,---,0.00,633.00,VWS V14.00,2013-07-20 15:21:00,
2013-07-20 10:26:00,82.0,68.2,29.64,SSE,159,2.0,9.0,63,0.00,,---,0.00,645.00,VWS V14.00,2013-07-20 15:26:00,
2013-07-20 10:30:00,82.3,68.0,29.64,SSE,159,2.0,10.0,62,0.00,,SKC,0.00,663.00,VWS V14.01,2013-07-20 15:30:00,
2013-07-20 10:31:00,82.3,68.0,29.64,SSE,159,7.0,10.0,62,0.00,,---,0.00,659.00,VWS V14.00,2013-07-20 15:31:00,
2013-07-20 10:36:00,82.6,68.3,29.64,SSE,159,4.0,9.0,62,0.00,,---,0.00,671.00,VWS V14.00,2013-07-20 15:36:00,
2013-07-20 10:40:00,83.0,67.2,29.64,SSE,159,7.0,9.0,59,0.00,,SKC,0.00,687.00,VWS V14.01,2013-07-20 15:40:00,
2013-07-20 10:41:00,82.9,67.6,29.64,SSE,159,5.0,9.0,60,0.00,,---,0.00,687.00,VWS V14.00,2013-07-20 15:41:00,
2013-07-20 10:46:00,83.2,67.4,29.64,SSE,159,7.0,9.0,59,0.00,,---,0.00,701.00,VWS V14.00,2013-07-20 15:46:00,
2013-07-20 10:50:00,83.6,66.3,29.64,SSE,159,4.0,10.0,56,0.00,,SKC,0.00,714.00,VWS V14.01,2013-07-20 15:50:00,
2013-07-20 10:51:00,83.6,66.3,29.64,SSE,159,8.0,10.0,56,0.00,,---,0.00,717.00,VWS V14.00,2013-07-20 15:51:00,
2013-07-20 10:56:00,83.7,65.8,29.64,SSE,159,2.0,9.0,55,0.00,,---,0.00,708.00,VWS V14.00,2013-07-20 15:56:00,
2013-07-20 11:00:00,83.8,65.9,29.63,SSE,161,0.0,12.0,55,0.00,,SKC,0.00,728.00,VWS V14.01,2013-07-20 16:00:00,
2013-07-20 11:01:00,83.8,65.9,29.64,SSE,161,8.0,12.0,55,0.00,,---,0.00,728.00,VWS V14.00,2013-07-20 16:01:00,
2013-07-20 11:06:00,84.0,66.6,29.64,SSE,161,7.0,10.0,56,0.00,,---,0.00,735.00,VWS V14.00,2013-07-20 16:06:00,
2013-07-20 11:10:00,84.0,66.6,29.63,SSE,161,4.0,10.0,56,0.00,,---,0.00,758.00,VWS V14.00,2013-07-20 16:10:00,
2013-07-20 11:16:00,84.4,68.0,29.63,SSE,161,7.0,9.0,58,0.00,,---,0.00,765.00,VWS V14.00,2013-07-20 16:16:00,
2013-07-20 11:20:00,84.7,67.3,29.63,SSE,162,6.0,12.0,56,0.00,,SKC,0.00,777.00,VWS V14.01,2013-07-20 16:20:00,
2013-07-20 11:21:00,84.7,67.3,29.64,SSE,162,5.0,12.0,56,0.00,,---,0.00,775.00,VWS V14.00,2013-07-20 16:21:00,
2013-07-20 11:26:00,84.8,67.4,29.64,SSE,162,8.0,8.0,56,0.00,,---,0.00,791.00,VWS V14.00,2013-07-20 16:26:00,
2013-07-20 11:30:00,85.0,66.5,29.64,SSE,162,7.0,9.0,54,0.00,,---,0.00,795.00,VWS V14.00,2013-07-20 16:30:00,
2013-07-20 11:36:00,85.5,67.5,29.64,SSE,162,4.0,8.0,55,0.00,,---,0.00,810.00,VWS V14.00,2013-07-20 16:36:00,
2013-07-20 11:40:00,85.7,67.7,29.64,South,174,2.0,10.0,55,0.00,,---,0.00,826.00,VWS V14.00,2013-07-20 16:40:00,
2013-07-20 11:45:00,85.9,67.3,29.64,South,174,5.0,8.0,54,0.00,,---,0.00,837.00,VWS V14.00,2013-07-20 16:45:00,
2013-07-20 11:50:00,86.0,67.4,29.63,South,174,1.0,8.0,54,0.00,,---,0.00,847.00,VWS V14.00,2013-07-20 16:50:00,
2013-07-20 11:55:00,86.4,67.8,29.63,South,174,2.0,10.0,54,0.00,,---,0.00,858.00,VWS V14.00,2013-07-20 16:55:00,
2013-07-20 12:00:00,86.8,68.2,29.63,South,174,8.0,10.0,54,0.00,,---,0.00,865.00,VWS V14.00,2013-07-20 17:00:00,
2013-07-20 12:05:00,87.0,67.3,29.63,South,174,0.0,9.0,52,0.00,,---,0.00,879.00,VWS V14.00,2013-07-20 17:05:00,
2013-07-20 12:10:00,87.0,66.7,29.63,South,174,2.0,9.0,51,0.00,,---,0.00,884.00,VWS V14.00,2013-07-20 17:10:00,
2013-07-20 12:15:00,86.9,66.6,29.63,South,174,7.0,8.0,51,0.00,,---,0.00,895.00,VWS V14.00,2013-07-20 17:15:00,
2013-07-20 12:20:00,87.1,67.9,29.63,South,174,4.0,8.0,53,0.00,,---,0.00,902.00,VWS V14.00,2013-07-20 17:20:00,
2013-07-20 12:25:00,87.4,67.1,29.62,South,174,0.0,9.0,51,0.00,,---,0.00,912.00,VWS V14.00,2013-07-20 17:25:00,
2013-07-20 12:30:00,87.7,67.3,29.62,South,174,6.0,10.0,51,0.00,,---,0.00,928.00,VWS V14.00,2013-07-20 17:30:00,
2013-07-20 12:35:00,88.1,68.3,29.62,South,174,9.0,10.0,52,0.00,,---,0.00,942.00,VWS V14.00,2013-07-20 17:35:00,
2013-07-20 12:40:00,88.1,67.1,29.62,South,174,0.0,10.0,50,0.00,,---,0.00,1020.00,VWS V14.00,2013-07-20 17:40:00,
2013-07-20 12:45:00,88.2,67.2,29.62,South,174,4.0,7.0,50,0.00,,---,0.00,1044.00,VWS V14.00,2013-07-20 17:45:00,
2013-07-20 12:50:00,88.1,67.1,29.62,South,174,6.0,9.0,50,0.00,,---,0.00,285.00,VWS V14.00,2013-07-20 17:50:00,
2013-07-20 12:55:00,87.8,67.4,29.62,South,174,1.0,4.0,51,0.00,,---,0.00,1116.00,VWS V14.00,2013-07-20 17:55:00,
2013-07-20 13:00:00,88.2,67.8,29.62,South,173,5.0,10.0,51,0.00,,---,0.00,1116.00,VWS V14.00,2013-07-20 18:00:00,
2013-07-20 13:05:00,88.5,66.9,29.61,South,173,6.0,10.0,49,0.00,,---,0.00,1102.00,VWS V14.00,2013-07-20 18:05:00,
2013-07-20 13:10:00,88.5,66.9,29.61,South,173,0.0,10.0,49,0.00,,---,0.00,1100.00,VWS V14.00,2013-07-20 18:10:00,
2013-07-20 13:15:00,89.0,66.8,29.61,South,173,6.0,9.0,48,0.00,,---,0.00,1090.00,VWS V14.00,2013-07-20 18:15:00,
2013-07-20 13:20:00,89.2,67.0,29.61,South,173,5.0,12.0,48,0.00,,---,0.00,1102.00,VWS V14.00,2013-07-20 18:20:00,
2013-07-20 13:26:00,89.5,67.2,29.61,South,173,2.0,7.0,48,0.00,,---,0.00,1104.00,VWS V14.00,2013-07-20 18:26:00,
2013-07-20 13:30:00,89.3,67.1,29.61,South,173,0.0,7.0,48,0.00,,SKC,0.00,197.00,VWS V14.01,2013-07-20 18:30:00,
2013-07-20 13:31:00,89.3,66.4,29.61,South,173,2.0,7.0,47,0.00,,---,0.00,197.00,VWS V14.00,2013-07-20 18:31:00,
2013-07-20 13:36:00,88.8,66.6,29.60,South,173,0.0,5.0,48,0.00,,---,0.00,258.00,VWS V14.00,2013-07-20 18:36:00,
2013-07-20 13:40:00,88.6,67.0,29.61,South,173,6.0,9.0,49,0.00,,SKC,0.00,445.00,VWS V14.01,2013-07-20 18:40:00,
2013-07-20 13:41:00,88.6,67.0,29.61,South,173,8.0,9.0,49,0.00,,---,0.00,445.00,VWS V14.00,2013-07-20 18:41:00,
2013-07-20 13:46:00,88.7,67.1,29.60,South,173,6.0,12.0,49,0.00,,---,0.00,1185.00,VWS V14.00,2013-07-20 18:46:00,
2013-07-20 13:50:00,89.2,67.0,29.60,South,173,4.0,12.0,48,0.00,,SKC,0.00,269.00,VWS V14.01,2013-07-20 18:50:00,
2013-07-20 13:51:00,89.2,67.0,29.60,South,173,0.0,12.0,48,0.00,,---,0.00,283.00,VWS V14.00,2013-07-20 18:51:00,
2013-07-20 13:56:00,89.2,67.6,29.60,South,173,7.0,7.0,49,0.00,,---,0.00,262.00,VWS V14.00,2013-07-20 18:56:00,
2013-07-20 14:00:00,89.5,66.6,29.60,South,173,4.0,8.0,47,0.00,,SKC,0.00,1178.00,VWS V14.01,2013-07-20 19:00:00,
2013-07-20 14:01:00,89.5,66.6,29.60,South,173,5.0,8.0,47,0.00,,---,0.00,1178.00,VWS V14.00,2013-07-20 19:01:00,
2013-07-20 14:06:00,89.3,66.4,29.60,South,173,5.0,10.0,47,0.00,,---,0.00,250.00,VWS V14.00,2013-07-20 19:06:00,
2013-07-20 14:10:00,89.2,67.0,29.59,South,173,4.0,10.0,48,0.00,,SKC,0.00,954.00,VWS V14.01,2013-07-20 19:10:00,
2013-07-20 14:11:00,89.2,67.0,29.59,South,173,5.0,10.0,48,0.00,,---,0.00,954.00,VWS V14.00,2013-07-20 19:11:00,
2013-07-20 14:16:00,89.5,66.0,29.59,South,173,0.0,8.0,46,0.00,,---,0.00,1153.00,VWS V14.00,2013-07-20 19:16:00,
2013-07-20 14:20:00,89.8,66.3,29.59,South,173,2.0,10.0,46,0.00,,SKC,0.00,1134.00,VWS V14.01,2013-07-20 19:20:00,
2013-07-20 14:21:00,89.8,66.3,29.59,South,173,2.0,10.0,46,0.00,,---,0.00,1134.00,VWS V14.00,2013-07-20 19:21:00,
2013-07-20 14:26:00,90.1,65.9,29.59,South,173,4.0,10.0,45,0.00,,---,0.00,1139.00,VWS V14.00,2013-07-20 19:26:00,
2013-07-20 14:30:00,90.4,65.5,29.58,South,173,5.0,10.0,44,0.00,,SKC,0.00,285.00,VWS V14.01,2013-07-20 19:30:00,
2013-07-20 14:31:00,90.4,65.5,29.58,South,173,5.0,10.0,44,0.00,,---,0.00,285.00,VWS V14.00,2013-07-20 19:31:00,
2013-07-20 14:36:00,90.3,66.1,29.58,South,173,0.0,7.0,45,0.00,,---,0.00,239.00,VWS V14.00,2013-07-20 19:36:00,
2013-07-20 14:40:00,89.8,66.3,29.58,South,173,5.0,8.0,46,0.00,,SKC,0.00,171.00,VWS V14.01,2013-07-20 19:40:00,
2013-07-20 14:41:00,89.8,66.3,29.58,South,173,5.0,8.0,46,0.00,,---,0.00,171.00,VWS V14.00,2013-07-20 19:41:00,
2013-07-20 14:46:00,89.1,66.3,29.57,South,173,6.0,6.0,47,0.00,,---,0.00,239.00,VWS V14.00,2013-07-20 19:46:00,
2013-07-20 14:50:00,89.0,66.2,29.57,South,173,4.0,7.0,47,0.00,,SKC,0.00,262.00,VWS V14.01,2013-07-20 19:50:00,
2013-07-20 14:51:00,89.0,66.2,29.57,South,173,5.0,5.0,47,0.00,,---,0.00,262.00,VWS V14.00,2013-07-20 19:51:00,
2013-07-20 14:56:00,89.2,66.3,29.57,South,173,5.0,7.0,47,0.00,,---,0.00,262.00,VWS V14.00,2013-07-20 19:56:00,
2013-07-20 15:00:00,89.4,66.5,29.57,South,173,1.0,8.0,47,0.00,,SKC,0.00,229.00,VWS V14.01,2013-07-20 20:00:00,
2013-07-20 15:01:00,89.4,66.5,29.57,South,173,1.0,8.0,47,0.00,,---,0.00,229.00,VWS V14.00,2013-07-20 20:01:00,
2013-07-20 15:07:00,89.2,65.7,29.56,South,173,2.0,8.0,46,0.00,,---,0.00,225.00,VWS V14.00,2013-07-20 20:07:00,
2013-07-20 15:10:00,89.0,65.6,29.57,South,173,2.0,8.0,46,0.00,,SKC,0.00,251.00,VWS V14.01,2013-07-20 20:10:00,
2013-07-20 15:12:00,89.0,65.6,29.57,South,173,4.0,4.0,46,0.00,,---,0.00,251.00,VWS V14.00,2013-07-20 20:12:00,
2013-07-20 15:17:00,88.8,65.4,29.57,South,173,2.0,9.0,46,0.00,,---,0.00,236.00,VWS V14.00,2013-07-20 20:17:00,
2013-07-20 15:20:00,88.7,65.9,29.56,South,173,6.0,11.0,47,0.00,,SKC,0.00,246.00,VWS V14.01,2013-07-20 20:20:00,
2013-07-20 15:22:00,88.7,65.9,29.56,South,173,8.0,12.0,47,0.00,,---,0.00,243.00,VWS V14.00,2013-07-20 20:22:00,
2013-07-20 15:27:00,88.6,65.8,29.56,South,173,10.0,12.0,47,0.00,,---,0.00,267.00,VWS V14.00,2013-07-20 20:27:00,
2013-07-20 15:30:00,88.8,66.0,29.56,South,173,6.0,12.0,47,0.00,,SKC,0.00,404.00,VWS V14.01,2013-07-20 20:30:00,
2013-07-20 15:32:00,88.8,66.0,29.56,South,173,10.0,10.0,47,0.00,,---,0.00,404.00,VWS V14.00,2013-07-20 20:32:00,
2013-07-20 15:37:00,89.6,66.1,29.56,South,173,9.0,10.0,46,0.00,,---,0.00,1053.00,VWS V14.00,2013-07-20 20:37:00,
2013-07-20 15:40:00,90.3,65.4,29.56,South,173,7.0,10.0,44,0.00,,SKC,0.00,1028.00,VWS V14.01,2013-07-20 20:40:00,
2013-07-20 15:42:00,90.3,65.4,29.56,South,173,7.0,7.0,44,0.00,,---,0.00,1028.00,VWS V14.00,2013-07-20 20:42:00,
2013-07-20 15:47:00,91.0,65.4,29.55,South,173,5.0,10.0,43,0.00,,---,0.00,1014.00,VWS V14.00,2013-07-20 20:47:00,
2013-07-20 15:50:00,91.5,65.2,29.55,South,173,5.0,10.0,42,0.00,,SKC,0.00,1049.00,VWS V14.01,2013-07-20 20:50:00,
2013-07-20 15:52:00,91.5,65.2,29.55,South,173,6.0,8.0,42,0.00,,---,0.00,1049.00,VWS V14.00,2013-07-20 20:52:00,
2013-07-20 15:57:00,91.6,66.6,29.55,South,173,5.0,10.0,44,0.00,,---,0.00,998.00,VWS V14.00,2013-07-20 20:57:00,
2013-07-20 16:00:00,91.9,65.6,29.55,South,172,5.0,11.0,42,0.00,,SKC,0.00,990.00,VWS V14.01,2013-07-20 21:00:00,
2013-07-20 16:02:00,91.9,65.6,29.56,South,172,0.0,8.0,42,0.00,,---,0.00,1000.00,VWS V14.00,2013-07-20 21:02:00,
2013-07-20 16:07:00,91.9,66.2,29.55,South,172,2.0,10.0,43,0.00,,---,0.00,309.00,VWS V14.00,2013-07-20 21:07:00,
2013-07-20 16:10:00,91.9,65.6,29.55,South,172,1.0,10.0,42,0.00,,SKC,0.00,949.00,VWS V14.01,2013-07-20 21:10:00,
2013-07-20 16:12:00,91.9,65.6,29.55,South,172,8.0,9.0,42,0.00,,---,0.00,949.00,VWS V14.00,2013-07-20 21:12:00,
2013-07-20 16:17:00,92.2,65.8,29.55,South,170,6.0,14.0,42,0.00,,---,0.00,895.00,VWS V14.00,2013-07-20 21:17:00,
2013-07-20 16:20:00,92.4,66.7,29.55,SSE,166,10.0,14.0,43,0.00,,SKC,0.00,896.00,VWS V14.01,2013-07-20 21:20:00,
2013-07-20 16:22:00,92.4,66.0,29.55,SSE,165,5.0,10.0,42,0.00,,---,0.00,905.00,VWS V14.00,2013-07-20 21:22:00,
2013-07-20 16:27:00,92.1,65.0,29.54,SSE,165,5.0,10.0,41,0.00,,---,0.00,905.00,VWS V14.00,2013-07-20 21:27:00,
2013-07-20 16:30:00,92.2,66.5,29.54,SSE,162,8.0,13.0,43,0.00,,SKC,0.00,900.00,VWS V14.01,2013-07-20 21:30:00,
2013-07-20 16:32:00,92.2,65.8,29.54,SSE,162,5.0,8.0,42,0.00,,---,0.00,891.00,VWS V14.00,2013-07-20 21:32:00,
2013-07-20 16:37:00,92.1,65.0,29.54,SSE,162,5.0,11.0,41,0.00,,---,0.00,865.00,VWS V14.00,2013-07-20 21:37:00,
2013-07-20 16:40:00,91.8,65.5,29.54,SSE,162,7.0,11.0,42,0.00,,SKC,0.00,197.00,VWS V14.01,2013-07-20 21:40:00,
2013-07-20 16:42:00,91.6,66.0,29.54,SSE,162,8.0,8.0,43,0.00,,---,0.00,193.00,VWS V14.00,2013-07-20 21:42:00,
2013-07-20 16:47:00,91.0,65.4,29.53,SSE,162,10.0,14.0,43,0.00,,---,0.00,151.00,VWS V14.00,2013-07-20 21:47:00,
2013-07-20 16:50:00,90.6,65.1,29.54,SSE,162,4.0,14.0,43,0.00,,SKC,0.00,146.00,VWS V14.01,2013-07-20 21:50:00,
2013-07-20 16:52:00,90.5,65.6,29.53,SSE,162,5.0,7.0,44,0.00,,---,0.00,146.00,VWS V14.00,2013-07-20 21:52:00,
2013-07-20 16:58:00,89.9,65.7,29.54,SSE,162,6.0,12.0,45,0.00,,---,0.00,153.00,VWS V14.00,2013-07-20 21:58:00,
2013-07-20 17:00:00,89.5,65.4,29.53,SSE,161,12.0,12.0,45,0.00,,SKC,0.00,172.00,VWS V14.01,2013-07-20 22:00:00,
2013-07-20 17:03:00,89.4,65.3,29.53,SSE,161,7.0,12.0,45,0.00,,---,0.00,178.00,VWS V14.00,2013-07-20 22:03:00,
2013-07-20 17:08:00,89.1,65.0,29.53,SSE,161,4.0,12.0,45,0.00,,---,0.00,165.00,VWS V14.00,2013-07-20 22:08:00,
2013-07-20 17:10:00,89.2,65.1,29.53,SSE,161,5.0,12.0,45,0.00,,SKC,0.00,712.00,VWS V14.01,2013-07-20 22:10:00,
2013-07-20 17:13:00,89.3,65.8,29.52,SSE,161,7.0,8.0,46,0.00,,---,0.00,694.00,VWS V14.00,2013-07-20 22:13:00,
2013-07-20 17:18:00,90.1,66.6,29.52,SSE,161,2.0,10.0,46,0.00,,---,0.00,661.00,VWS V14.00,2013-07-20 22:18:00,
2013-07-20 17:20:00,90.3,65.4,29.52,SSE,161,7.0,11.0,44,0.00,,SKC,0.00,127.00,VWS V14.01,2013-07-20 22:20:00,
2013-07-20 17:23:00,90.3,65.4,29.52,SSE,161,6.0,8.0,44,0.00,,---,0.00,135.00,VWS V14.00,2013-07-20 22:23:00,
2013-07-20 17:28:00,89.9,65.7,29.52,SSE,161,2.0,10.0,45,0.00,,---,0.00,188.00,VWS V14.00,2013-07-20 22:28:00,
2013-07-20 17:30:00,89.7,65.6,29.52,SSE,161,4.0,11.0,45,0.00,,SKC,0.00,167.00,VWS V14.01,2013-07-20 22:30:00,
2013-07-20 17:33:00,89.7,64.9,29.52,SSE,161,4.0,8.0,44,0.00,,---,0.00,176.00,VWS V14.00,2013-07-20 22:33:00,
2013-07-20 17:38:00,89.5,65.4,29.53,SSE,161,6.0,14.0,45,0.00,,---,0.00,661.00,VWS V14.00,2013-07-20 22:38:00,
2013-07-20 17:40:00,89.7,65.6,29.52,SSE,161,7.0,14.0,45,0.00,,SKC,0.00,619.00,VWS V14.01,2013-07-20 22:40:00,
2013-07-20 17:43:00,89.8,65.0,29.52,SSE,161,6.0,11.0,44,0.00,,---,0.00,615.00,VWS V14.00,2013-07-20 22:43:00,
2013-07-20 17:48:00,89.9,64.4,29.51,SSE,161,7.0,11.0,43,0.00,,---,0.00,139.00,VWS V14.00,2013-07-20 22:48:00,
2013-07-20 17:50:00,89.7,64.2,29.51,SSE,161,6.0,13.0,43,0.00,,SKC,0.00,197.00,VWS V14.01,2013-07-20 22:50:00,
2013-07-20 17:53:00,89.7,64.9,29.51,SSE,161,6.0,7.0,44,0.00,,---,0.00,461.00,VWS V14.00,2013-07-20 22:53:00,
2013-07-20 17:58:00,89.5,64.7,29.51,SSE,161,4.0,10.0,44,0.00,,---,0.00,146.00,VWS V14.00,2013-07-20 22:58:00,
2013-07-20 18:00:00,89.3,64.6,29.51,SSE,161,8.0,10.0,44,0.00,,SKC,0.00,158.00,VWS V14.01,2013-07-20 23:00:00,
2013-07-20 18:03:00,89.3,64.6,29.51,SSE,161,4.0,8.0,44,0.00,,---,0.00,165.00,VWS V14.00,2013-07-20 23:03:00,
2013-07-20 18:08:00,89.2,64.5,29.51,SSE,161,6.0,8.0,44,0.00,,---,0.00,163.00,VWS V14.00,2013-07-20 23:08:00,
2013-07-20 18:10:00,89.2,64.5,29.51,SSE,161,4.0,10.0,44,0.00,,SKC,0.00,156.00,VWS V14.01,2013-07-20 23:10:00,
2013-07-20 18:13:00,89.1,64.4,29.51,SSE,161,1.0,8.0,44,0.00,,---,0.00,149.00,VWS V14.00,2013-07-20 23:13:00,
2013-07-20 18:18:00,89.1,65.0,29.50,SSE,161,6.0,8.0,45,0.00,,---,0.00,357.00,VWS V14.00,2013-07-20 23:18:00,
2013-07-20 18:20:00,89.2,64.5,29.50,SSE,161,4.0,8.0,44,0.00,,SKC,0.00,125.00,VWS V14.01,2013-07-20 23:20:00,
2013-07-20 18:24:00,89.2,64.5,29.51,SSE,161,5.0,9.0,44,0.00,,---,0.00,197.00,VWS V14.00,2013-07-20 23:24:00,
2013-07-20 18:29:00,89.4,64.0,29.51,SSE,161,2.0,9.0,43,0.00,,---,0.00,431.00,VWS V14.00,2013-07-20 23:29:00,
2013-07-20 18:30:00,89.7,64.9,29.50,SSE,161,8.0,9.0,44,0.00,,SKC,0.00,408.00,VWS V14.01,2013-07-20 23:30:00,
2013-07-20 18:34:00,89.9,64.4,29.50,SSE,161,2.0,7.0,43,0.00,,---,0.00,399.00,VWS V14.00,2013-07-20 23:34:00,
2013-07-20 18:39:00,90.3,63.4,29.50,SSE,161,0.0,10.0,41,0.00,,---,0.00,376.00,VWS V14.00,2013-07-20 23:39:00,
2013-07-20 18:40:00,90.5,64.3,29.50,SSE,161,6.0,10.0,42,0.00,,SKC,0.00,364.00,VWS V14.01,2013-07-20 23:40:00,
2013-07-20 18:44:00,90.5,63.6,29.50,SSE,161,7.0,12.0,41,0.00,,---,0.00,353.00,VWS V14.00,2013-07-20 23:44:00,
2013-07-20 18:49:00,90.6,64.4,29.50,SSE,161,1.0,12.0,42,0.00,,---,0.00,343.00,VWS V14.00,2013-07-20 23:49:00,
2013-07-20 18:50:00,90.7,64.5,29.50,SSE,161,5.0,12.0,42,0.00,,SKC,0.00,341.00,VWS V14.01,2013-07-20 23:50:00,
2013-07-20 18:54:00,90.8,65.2,29.50,SSE,161,7.0,7.0,43,0.00,,---,0.00,338.00,VWS V14.00,2013-07-20 23:54:00,
2013-07-20 18:59:00,90.9,64.7,29.50,SSE,161,9.0,11.0,42,0.00,,---,0.00,341.00,VWS V14.00,2013-07-20 23:59:00,
2013-07-20 19:00:00,90.9,64.7,29.50,SSE,161,1.0,11.0,42,0.00,,SKC,0.00,306.00,VWS V14.01,2013-07-21 00:00:00,
2013-07-20 19:04:00,90.9,64.0,29.50,SSE,161,4.0,8.0,41,0.00,,---,0.00,294.00,VWS V14.00,2013-07-21 00:04:00,
2013-07-20 19:09:00,90.8,64.6,29.50,SSE,161,8.0,8.0,42,0.00,,---,0.00,185.00,VWS V14.00,2013-07-21 00:09:00,
2013-07-20 19:10:00,90.7,64.5,29.50,SSE,161,6.0,10.0,42,0.00,,SKC,0.00,102.00,VWS V14.01,2013-07-21 00:10:00,
2013-07-20 19:14:00,90.5,64.3,29.50,SSE,161,7.0,12.0,42,0.00,,---,0.00,183.00,VWS V14.00,2013-07-21 00:14:00,
2013-07-20 19:19:00,89.9,63.8,29.51,SSE,159,8.0,15.0,42,0.00,,---,0.00,185.00,VWS V14.00,2013-07-21 00:19:00,
2013-07-20 19:20:00,89.6,64.2,29.50,SSE,159,5.0,15.0,43,0.00,,SKC,0.00,195.00,VWS V14.01,2013-07-21 00:20:00,
2013-07-20 19:24:00,89.4,64.0,29.50,SSE,159,7.0,9.0,43,0.00,,---,0.00,193.00,VWS V14.00,2013-07-21 00:24:00,
2013-07-20 19:29:00,89.3,64.6,29.50,SSE,159,7.0,10.0,44,0.00,,---,0.00,178.00,VWS V14.00,2013-07-21 00:29:00,
2013-07-20 19:30:00,89.2,64.5,29.51,SSE,159,1.0,10.0,44,0.00,,SKC,0.00,134.00,VWS V14.01,2013-07-21 00:30:00,
2013-07-20 19:34:00,89.1,64.4,29.51,SSE,159,1.0,8.0,44,0.00,,---,0.00,109.00,VWS V14.00,2013-07-21 00:34:00,
2013-07-20 19:39:00,88.9,64.2,29.51,SSE,159,4.0,10.0,44,0.00,,---,0.00,46.00,VWS V14.00,2013-07-21 00:39:00,
2013-07-20 19:40:00,88.8,64.1,29.51,SSE,159,2.0,10.0,44,0.00,,SKC,0.00,39.00,VWS V14.01,2013-07-21 00:40:00,
2013-07-20 19:44:00,88.5,63.8,29.52,SSE,159,7.0,7.0,44,0.00,,---,0.00,33.00,VWS V14.00,2013-07-21 00:44:00,
2013-07-20 19:49:00,88.1,64.1,29.51,SSE,159,0.0,9.0,45,0.00,,---,0.00,30.00,VWS V14.00,2013-07-21 00:49:00,
2013-07-20 19:50:00,88.0,64.0,29.52,SSE,159,4.0,9.0,45,0.00,,SKC,0.00,32.00,VWS V14.01,2013-07-21 00:50:00,
2013-07-20 19:54:00,87.7,63.8,29.52,SSE,159,4.0,5.0,45,0.00,,---,0.00,23.00,VWS V14.00,2013-07-21 00:54:00,
2013-07-20 20:00:00,87.4,64.1,29.51,SSE,159,4.0,6.0,46,0.00,,---,0.00,18.00,VWS V14.00,2013-07-21 01:00:00,
2013-07-20 20:05:00,87.0,64.3,29.52,SSE,159,5.0,5.0,47,0.00,,---,0.00,14.00,VWS V14.00,2013-07-21 01:05:00,
2013-07-20 20:10:00,86.7,64.1,29.52,SSE,159,1.0,6.0,47,0.00,,---,0.00,12.00,VWS V14.00,2013-07-21 01:10:00,
2013-07-20 20:15:00,86.3,64.3,29.52,SSE,159,0.0,5.0,48,0.00,,---,0.00,11.00,VWS V14.00,2013-07-21 01:15:00,
2013-07-20 20:20:00,85.9,64.5,29.52,SSE,159,0.0,5.0,49,0.00,,---,0.00,9.00,VWS V14.00,2013-07-21 01:20:00,
2013-07-20 20:25:00,85.6,64.3,29.52,SSE,159,2.0,5.0,49,0.00,,---,0.00,5.00,VWS V14.00,2013-07-21 01:25:00,
2013-07-20 20:30:00,85.2,64.5,29.53,SSE,159,5.0,6.0,50,0.00,,---,0.00,5.00,VWS V14.00,2013-07-21 01:30:00,
2013-07-20 20:35:00,84.8,64.1,29.53,SSE,159,1.0,6.0,50,0.00,,---,0.00,0.00,VWS V14.00,2013-07-21 01:35:00,
2013-07-20 20:40:00,84.6,63.9,29.53,SSE,159,4.0,6.0,50,0.00,,---,0.00,0.00,VWS V14.00,2013-07-21 01:40:00,
2013-07-20 20:45:00,84.3,64.2,29.52,SSE,159,5.0,6.0,51,0.00,,---,0.00,0.00,VWS V14.00,2013-07-21 01:45:00,
2013-07-20 20:50:00,84.1,64.0,29.53,SSE,159,0.0,6.0,51,0.00,,---,0.00,0.00,VWS V14.00,2013-07-21 01:50:00,
2013-07-20 20:56:00,83.9,63.8,29.53,SSE,159,1.0,5.0,51,0.00,,---,0.00,0.00,VWS V14.00,2013-07-21 01:56:00,
2013-07-20 21:00:00,83.7,64.2,29.54,SSE,159,0.0,5.0,52,0.00,,SKC,0.00,0.00,VWS V14.01,2013-07-21 02:00:00,
2013-07-20 21:01:00,83.7,64.2,29.54,SSE,159,2.0,5.0,52,0.00,,---,0.00,0.00,VWS V14.00,2013-07-21 02:01:00,
2013-07-20 21:06:00,83.5,64.0,29.53,SSE,159,1.0,4.0,52,0.00,,---,0.00,0.00,VWS V14.00,2013-07-21 02:06:00,
2013-07-20 21:10:00,83.3,64.4,29.53,SSE,159,0.0,6.0,53,0.00,,SKC,0.00,0.00,VWS V14.01,2013-07-21 02:10:00,
2013-07-20 21:11:00,83.3,64.4,29.53,SSE,159,0.0,6.0,53,0.00,,---,0.00,0.00,VWS V14.00,2013-07-21 02:11:00,
2013-07-20 21:16:00,83.1,64.2,29.53,SSE,159,0.0,4.0,53,0.00,,---,0.00,0.00,VWS V14.00,2013-07-21 02:16:00,
2013-07-20 21:20:00,82.9,64.6,29.53,SSE,159,0.0,5.0,54,0.00,,SKC,0.00,0.00,VWS V14.01,2013-07-21 02:20:00,
2013-07-20 21:21:00,82.9,64.6,29.53,SSE,159,1.0,5.0,54,0.00,,---,0.00,0.00,VWS V14.00,2013-07-21 02:21:00,
2013-07-20 21:26:00,82.7,64.4,29.54,SSE,159,0.0,6.0,54,0.00,,---,0.00,0.00,VWS V14.00,2013-07-21 02:26:00,
2013-07-20 21:30:00,82.5,64.7,29.55,SSE,159,2.0,6.0,55,0.00,,SKC,0.00,0.00,VWS V14.01,2013-07-21 02:30:00,
2013-07-20 21:31:00,82.5,64.7,29.55,SSE,159,1.0,6.0,55,0.00,,---,0.00,0.00,VWS V14.00,2013-07-21 02:31:00,
2013-07-20 21:36:00,82.4,64.6,29.54,SSE,159,1.0,7.0,55,0.00,,---,0.00,0.00,VWS V14.00,2013-07-21 02:36:00,
2013-07-20 21:40:00,82.3,64.5,29.54,SSE,159,5.0,7.0,55,0.00,,SKC,0.00,0.00,VWS V14.01,2013-07-21 02:40:00,
2013-07-20 21:42:00,82.3,64.5,29.54,SSE,159,2.0,5.0,55,0.00,,---,0.00,0.00,VWS V14.00,2013-07-21 02:42:00,
2013-07-20 21:47:00,82.1,64.9,29.55,SSE,159,0.0,5.0,56,0.00,,---,0.00,0.00,VWS V14.00,2013-07-21 02:47:00,
2013-07-20 21:50:00,82.0,64.8,29.55,SSE,159,0.0,6.0,56,0.00,,SKC,0.00,0.00,VWS V14.01,2013-07-21 02:50:00,
2013-07-20 21:52:00,82.0,64.8,29.54,SSE,159,1.0,1.0,56,0.00,,---,0.00,0.00,VWS V14.00,2013-07-21 02:52:00,
2013-07-20 21:57:00,82.0,64.8,29.55,SSE,159,5.0,6.0,56,0.00,,---,0.00,0.00,VWS V14.00,2013-07-21 02:57:00,
2013-07-20 22:00:00,81.9,64.7,29.55,SSE,159,5.0,6.0,56,0.00,,SKC,0.00,0.00,VWS V14.01,2013-07-21 03:00:00,
2013-07-20 22:02:00,81.9,64.7,29.55,SSE,159,0.0,4.0,56,0.00,,---,0.00,0.00,VWS V14.00,2013-07-21 03:02:00,
2013-07-20 22:07:00,81.8,64.6,29.55,SSE,159,4.0,5.0,56,0.00,,---,0.00,0.00,VWS V14.00,2013-07-21 03:07:00,
2013-07-20 22:10:00,81.7,64.5,29.56,SSE,159,4.0,6.0,56,0.00,,SKC,0.00,0.00,VWS V14.01,2013-07-21 03:10:00,
2013-07-20 22:12:00,81.7,64.5,29.56,SSE,159,4.0,5.0,56,0.00,,---,0.00,0.00,VWS V14.00,2013-07-21 03:12:00,
2013-07-20 22:17:00,81.6,64.9,29.56,SSE,159,5.0,7.0,57,0.00,,---,0.00,0.00,VWS V14.00,2013-07-21 03:17:00,
2013-07-20 22:20:00,81.5,64.8,29.56,SSE,159,5.0,7.0,57,0.00,,SKC,0.00,0.00,VWS V14.01,2013-07-21 03:20:00,
2013-07-20 22:23:00,81.4,64.7,29.56,SSE,159,2.0,6.0,57,0.00,,---,0.00,0.00,VWS V14.00,2013-07-21 03:23:00,
2013-07-20 22:28:00,81.4,64.7,29.56,SSE,159,2.0,6.0,57,0.00,,---,0.00,0.00,VWS V14.00,2013-07-21 03:28:00,
2013-07-20 22:30:00,81.3,64.6,29.56,SSE,159,6.0,7.0,57,0.00,,SKC,0.00,0.00,VWS V14.01,2013-07-21 03:30:00,
2013-07-20 22:33:00,81.3,64.6,29.56,SSE,159,7.0,7.0,57,0.00,,---,0.00,0.00,VWS V14.00,2013-07-21 03:33:00,
2013-07-20 22:38:00,81.2,65.0,29.56,SSE,159,6.0,9.0,58,0.00,,---,0.00,0.00,VWS V14.00,2013-07-21 03:38:00,
2013-07-20 22:40:00,81.0,64.8,29.56,SSE,159,6.0,9.0,58,0.00,,SKC,0.00,0.00,VWS V14.01,2013-07-21 03:40:00,
2013-07-20 22:43:00,81.0,65.3,29.57,SSE,159,8.0,10.0,59,0.00,,---,0.00,0.00,VWS V14.00,2013-07-21 03:43:00,
2013-07-20 22:48:00,80.7,65.5,29.56,SSE,159,4.0,10.0,60,0.00,,---,0.00,0.00,VWS V14.00,2013-07-21 03:48:00,
2013-07-20 22:50:00,80.5,65.8,29.56,SSE,159,6.0,11.0,61,0.00,,SKC,0.00,0.00,VWS V14.01,2013-07-21 03:50:00,
2013-07-20 22:53:00,80.3,66.1,29.56,SSE,159,11.0,11.0,62,0.00,,---,0.00,0.00,VWS V14.00,2013-07-21 03:53:00,
2013-07-20 22:59:00,80.0,66.3,29.57,SSE,159,7.0,12.0,63,0.00,,---,0.00,0.00,VWS V14.00,2013-07-21 03:59:00,
2013-07-20 23:00:00,79.8,66.6,29.57,SSE,159,2.0,12.0,64,0.00,,SKC,0.00,0.00,VWS V14.01,2013-07-21 04:00:00,
2013-07-20 23:01:00,79.9,66.7,29.57,SSE,159,8.0,12.0,64,0.00,,---,0.00,0.00,VWS V14.00,2013-07-21 04:01:00,
2013-07-20 23:06:00,79.6,66.8,29.57,SSE,159,6.0,8.0,65,0.00,,---,0.00,0.00,VWS V14.00,2013-07-21 04:06:00,
2013-07-20 23:10:00,79.4,67.1,29.57,SSE,159,6.0,8.0,66,0.00,,SKC,0.00,0.00,VWS V14.01,2013-07-21 04:10:00,
2013-07-20 23:11:00,79.4,67.1,29.57,SSE,159,2.0,8.0,66,0.00,,---,0.00,0.00,VWS V14.00,2013-07-21 04:11:00,
2013-07-20 23:16:00,79.2,67.3,29.57,SSE,159,5.0,8.0,67,0.00,,---,0.00,0.00,VWS V14.00,2013-07-21 04:16:00,
2013-07-20 23:20:00,79.0,67.6,29.57,SSE,159,6.0,8.0,68,0.00,,SKC,0.00,0.00,VWS V14.01,2013-07-21 04:20:00,
2013-07-20 23:21:00,79.0,67.6,29.57,SSE,159,4.0,8.0,68,0.00,,---,0.00,0.00,VWS V14.00,2013-07-21 04:21:00,
2013-07-20 23:26:00,78.8,67.4,29.58,SSE,159,5.0,10.0,68,0.00,,---,0.00,0.00,VWS V14.00,2013-07-21 04:26:00,
2013-07-20 23:30:00,78.6,67.6,29.58,SSE,159,6.0,12.0,69,0.00,,SKC,0.00,0.00,VWS V14.01,2013-07-21 04:30:00,
2013-07-20 23:31:00,78.6,67.6,29.58,SSE,159,12.0,12.0,69,0.00,,---,0.00,0.00,VWS V14.00,2013-07-21 04:31:00,
2013-07-20 23:36:00,78.5,67.9,29.58,SSE,159,5.0,7.0,70,0.00,,---,0.00,0.00,VWS V14.00,2013-07-21 04:36:00,
2013-07-20 23:40:00,78.2,68.0,29.58,SSE,159,4.0,9.0,71,0.00,,SKC,0.00,0.00,VWS V14.01,2013-07-21 04:40:00,
2013-07-20 23:41:00,78.3,68.1,29.58,SSE,159,2.0,9.0,71,0.00,,---,0.00,0.00,VWS V14.00,2013-07-21 04:41:00,
2013-07-20 23:46:00,78.1,67.9,29.59,SSE,159,1.0,11.0,71,0.00,,---,0.00,0.00,VWS V14.00,2013-07-21 04:46:00,
2013-07-20 23:50:00,77.9,68.2,29.58,SSE,159,5.0,11.0,72,0.00,,SKC,0.00,0.00,VWS V14.01,2013-07-21 04:50:00,
2013-07-20 23:51:00,77.9,68.2,29.58,SSE,159,5.0,11.0,72,0.00,,---,0.00,0.00,VWS V14.00,2013-07-21 04:51:00,
2013-07-20 23:56:00,77.8,68.1,29.58,SSE,159,4.0,9.0,72,0.00,,---,0.00,0.00,VWS V14.00,2013-07-21 04:56:00,